sat.trackr.live / text

‹ back to catalog

STARLINK-36794

NORAD 68955 · 2026-099E

PAYLOAD ACTIVE UNKNOWN

§ Identity

Operator
Country
US
Launch date
2026-05-01
Launch site
AFETR
Launch vehicle
Mass (kg)
RCS (m²)

Purposes: comms

External: N2YO · Heavens-Above · Gunter

§ Orbital elements

Epoch: 2026-05-25T04:00:03.998880Z

Period
92.00 min
Inclination
53.1590°
Eccentricity
0.0000937
Mean motion
15.65301180 rev/d
Perigee alt
371.7 km
Apogee alt
373.0 km
Semi-major
6,750.5 km
B*
-2.1143e-2
RAAN
270.1252°
Arg perigee
76.0371°
Mean anomaly
191.3379°
Rev number
501

§ Raw data

STARLINK-367941 68955U 26099E   26145.16671295 -.01897246  00000+0 -21143-1 0  99942 68955  53.1590 270.1252 0000937  76.0371 191.3379 15.65301180  5019

JSON: /api/v1/satellites/68955 · /tle

For live sub-satellite position, see the globe view (requires WebGL).

§ Visibility from observer

Set your observer location to see the next 7 days of passes ≥ 10°. The values pass through the URL so the page stays shareable.

No JS? Fill the form by hand. The geolocation button needs JavaScript.